Flag for U.S.A. Weather past 2 weeks in Post Falls, Idaho, U.S.A.

Now
61 °F

Sunny.


Feels Like: 61 °F
Forecast: 36 / 67 °F
Wind: 9 mph from Northeast

Location: Coeur d'Alene Weather Reporting System

Current Time: Apr 19, 2015 at 12:33:47 PM

Latest Report: Apr 19, 2015 at 11:55 AM


Visibility: 10 mi

Pressure: 30.13 "Hg

Humidity: 27%

Dew point: 27 °F

Location of Post FallsLocation

Historic Weather in Post Falls — Graph

°F

Post Falls temperature yesterday

Maximum temperature yesterday: 68 °F (at 4:15 PM)
Minimum temperature yesterday: 37 °F (at 5:15 AM)
Average temperature yesterday: 53 °F

Past Weeks' High & Low Weather Summary

 TemperatureHumidityPressure
High68 °F (Apr 18, 4:15 PM)100% (Apr 4, 8:35 PM)30.40 "Hg (Apr 4, 8:35 PM)
Low27 °F (Apr 5, 6:15 AM)12% (Apr 8, 7:35 AM)29.64 "Hg (Apr 5, 6:35 PM)
Average44 °F62%30.01 "Hg
* Reported Apr 4 11:15 AM — Apr 19 11:35 AM, Post Falls, Weather by CustomWeather, © 2015

Note: Actual official high and low records may vary slightly from our data, if they occured in-between our weather recording intervals... More about our weather records

Advertising

Post Falls weather history for previous 24 hours

 ConditionsComfort  
Time TempWeatherWind HumidityBarometerVisibility
11:35 AM
Sun, Apr 19
61 °FSunny.6 mph27%30.14 "Hg10 mi
10:35 AM57 °FSunny.9 mph25%30.16 "Hg10 mi
10:15 AM57 °FSunny.13 mph48%30.17 "Hg10 mi
9:55 AM55 °FSunny.10 mph31%30.17 "Hg10 mi
9:35 AM54 °FSunny.9 mph28%30.18 "Hg10 mi
9:15 AM54 °FSunny.9 mph44%30.19 "Hg10 mi
8:55 AM50 °FSunny.7 mph54%30.20 "Hg10 mi
8:35 AM48 °FSunny.8 mph54%30.20 "Hg10 mi
8:15 AM46 °FSunny.8 mph53%30.20 "Hg10 mi
7:55 AM45 °FSunny.8 mph57%30.20 "Hg10 mi
7:35 AM43 °FSunny.7 mph57%30.21 "Hg10 mi
7:15 AM43 °FSunny.No wind76%30.21 "Hg10 mi
6:55 AM37 °FSunny.7 mph81%30.20 "Hg10 mi
6:35 AM36 °FClear.3 mph75%30.20 "Hg10 mi
6:15 AM36 °FClear.3 mph75%30.20 "Hg10 mi
5:55 AM36 °FClear.5 mph81%30.19 "Hg10 mi
5:35 AM36 °FClear.No wind81%30.19 "Hg10 mi
5:15 AM37 °FClear.No wind70%30.19 "Hg10 mi
4:55 AM37 °FClear.3 mph75%30.19 "Hg10 mi
4:35 AM36 °FClear.5 mph81%30.19 "Hg10 mi
4:15 AM37 °FClear.5 mph75%30.19 "Hg10 mi
3:55 AM36 °FClear.No wind75%30.19 "Hg10 mi
3:35 AM36 °FClear.No wind75%30.18 "Hg10 mi
3:15 AM37 °FClear.No wind81%30.18 "Hg10 mi
2:55 AM36 °FClear.No wind81%30.18 "Hg10 mi
2:35 AM36 °FClear.3 mph75%30.18 "Hg10 mi
2:15 AM36 °FClear.6 mph75%30.18 "Hg10 mi
1:55 AM36 °FClear.3 mph60%30.18 "Hg10 mi
1:35 AM41 °FClear.No wind61%30.17 "Hg10 mi
1:15 AM41 °FClear.No wind66%30.18 "Hg10 mi
12:55 AM43 °FClear.3 mph61%30.18 "Hg10 mi
12:35 AM43 °FClear.No wind61%30.18 "Hg10 mi
12:15 AM43 °FClear.No wind61%30.18 "Hg10 mi
11:55 PM
Sat, Apr 18
45 °FClear.No wind57%30.17 "Hg10 mi
11:35 PM46 °FClear.No wind53%30.18 "Hg10 mi
11:15 PM46 °FClear.8 mph53%30.17 "Hg10 mi
10:55 PM46 °FClear.8 mph53%30.17 "Hg10 mi
10:35 PM46 °FClear.7 mph57%30.17 "Hg10 mi
10:15 PM46 °FClear.6 mph53%30.17 "Hg10 mi
9:55 PM48 °FClear.5 mph46%30.17 "Hg10 mi
9:35 PM48 °FClear.3 mph40%30.17 "Hg10 mi
9:15 PM52 °FClear.3 mph35%30.17 "Hg10 mi
8:35 PM52 °FSunny.No wind32%30.16 "Hg10 mi
8:15 PM54 °FSunny.No wind26%30.16 "Hg10 mi
7:55 PM57 °FSunny.10 mph21%30.15 "Hg10 mi
7:35 PM59 °FSunny.12 mph23%30.15 "Hg10 mi
7:15 PM61 °FSunny.9 mph20%30.15 "Hg10 mi
6:55 PM63 °FSunny.13 mph20%30.15 "Hg10 mi
6:35 PM64 °FSunny.15 mph19%30.15 "Hg10 mi
5:55 PM64 °FSunny.15 mph19%30.16 "Hg10 mi
5:35 PM66 °FSunny.15 mph19%30.16 "Hg10 mi
5:15 PM66 °FSunny.15 mph21%30.16 "Hg10 mi
4:55 PM66 °FSunny.6 mph21%30.16 "Hg10 mi
4:35 PM66 °FSunny.16 mph18%30.16 "Hg10 mi
4:15 PM68 °FSunny.6 mph21%30.17 "Hg10 mi
3:55 PM66 °FSunny.13 mph22%30.17 "Hg10 mi
3:35 PM66 °FSunny.10 mph22%30.18 "Hg10 mi
3:15 PM66 °FSunny.8 mph21%30.19 "Hg10 mi
2:55 PM66 °FSunny.10 mph21%30.20 "Hg10 mi
2:35 PM66 °FSunny.9 mph21%30.20 "Hg10 mi
2:15 PM64 °FSunny.No wind22%30.20 "Hg10 mi
1:55 PM64 °FSunny.3 mph22%30.21 "Hg10 mi
1:35 PM64 °FSunny.No wind22%30.22 "Hg10 mi
1:15 PM64 °FSunny.8 mph24%30.22 "Hg10 mi
12:55 PM63 °FSunny.5 mph24%30.22 "Hg10 mi
12:35 PM63 °FSunny.3 mph24%30.23 "Hg10 mi
12:15 PM63 °FSunny.6 mph25%30.24 "Hg10 mi
Weather by CustomWeather, © 2015

See weather overviewHow to use our weather pages